Date String (YYYY-MM-DD hh:mm:ss) UTC,Instrument flags,Ambient pressure (hPa),Sample flow (lpm),Bypass flow (lpm),Sample temperature (°C),Ambient temperature (°C),ASC tube jacket temperature (°C),LED temperature (°C),Box temperature (°C),Sample RH (%),Span deviation,Mass concentration (μg/m³),Mass concentration (μg/m³),Mass concentration (μg/m³)
DateTimeUTC,F1_M11,P_M11,Q1_M11,Q2_M11,T1_M11,T2_M11,T3_M11,T4_M11,T5_M11,U1_M11,ZSPAN_M11,X0_M11,X2_M11,X1_M11
2022-04-24 13:00:00,,0824.6,4.99,0.00,21.4,20.9,00.0,30.4,23.0,16.4,0000.0,0008.89,0002.10,0001.26
2022-04-24 13:01:00,,0824.7,5.00,0.00,21.3,20.8,00.0,30.3,23.0,16.5,0000.0,0008.71,0002.13,0001.28
2022-04-24 13:02:00,,0824.8,4.99,0.00,21.3,20.7,00.0,30.3,23.0,16.4,0000.0,0008.33,0002.14,0001.30
2022-04-24 13:03:00,,0824.8,5.00,0.00,21.3,20.7,00.0,30.3,23.0,16.6,0000.0,0007.93,0002.15,0001.32
2022-04-24 13:04:00,,0824.9,5.01,0.00,21.3,20.7,00.0,30.3,23.0,16.6,0000.0,0007.92,0002.18,0001.33
2022-04-24 13:05:00,,0824.8,4.99,0.00,21.3,20.7,00.0,30.3,23.0,16.7,0000.0,0008.05,0002.17,0001.34
2022-04-24 13:06:00,,0824.9,5.00,0.00,21.3,20.7,00.0,30.3,23.0,16.7,0000.0,0007.64,0002.13,0001.36
2022-04-24 13:07:00,,0824.9,5.00,0.00,21.3,20.7,00.0,30.3,23.0,16.7,0000.0,0007.36,0002.12,0001.37
2022-04-24 13:08:00,,0824.9,5.00,0.00,21.3,20.7,00.0,30.3,23.0,16.7,0000.0,0006.64,0002.07,0001.38
2022-04-24 13:09:00,,0824.9,5.00,0.00,21.3,20.7,00.0,30.3,23.0,16.7,0000.0,0006.87,0001.96,0001.39
2022-04-24 13:10:00,,0825.0,5.00,0.00,21.3,20.7,00.0,30.3,23.0,16.8,0000.0,0007.12,0001.91,0001.38
2022-04-24 13:11:00,,0825.0,5.00,0.00,21.3,20.7,00.0,30.3,23.0,16.8,0000.0,0007.08,0001.92,0001.38
2022-04-24 13:12:00,,0825.0,5.00,0.00,21.3,20.7,00.0,30.3,23.0,16.8,0000.0,0007.27,0001.93,0001.38
2022-04-24 13:13:00,,0825.1,5.00,0.00,21.3,20.7,00.0,30.3,23.0,16.8,0000.0,0007.24,0001.93,0001.39
2022-04-24 13:14:00,,0825.1,5.00,0.00,21.3,20.7,00.0,30.3,23.0,16.7,0000.0,0007.59,0001.97,0001.40
2022-04-24 13:15:00,,0825.1,4.99,0.00,21.3,20.7,00.0,30.3,23.0,16.7,0000.0,0007.97,0001.95,0001.39
2022-04-24 13:16:00,,0825.1,4.99,0.00,21.3,20.7,00.0,30.3,23.0,16.7,0000.0,0006.83,0001.94,0001.39
2022-04-24 13:17:00,,0825.1,4.99,0.00,21.3,20.8,00.0,30.3,23.0,16.6,0000.0,0006.54,0002.00,0001.40
2022-04-24 13:18:00,,0825.1,5.00,0.00,21.3,20.8,00.0,30.3,23.1,16.6,0000.0,0006.62,0002.05,0001.42
2022-04-24 13:19:00,,0825.2,5.00,0.00,21.3,20.8,00.0,30.3,23.1,16.6,0000.0,0006.70,0002.08,0001.42
2022-04-24 13:20:00,,0825.1,5.01,0.00,21.3,20.8,00.0,30.3,23.1,16.6,0000.0,0006.33,0002.12,0001.42
2022-04-24 13:21:00,,0825.2,5.00,0.00,21.3,20.8,00.0,30.3,23.1,16.7,0000.0,0005.49,0002.17,0001.45
2022-04-24 13:22:00,,0825.2,5.00,0.00,21.4,20.9,00.0,30.3,23.1,16.7,0000.0,0005.57,0002.22,0001.47
2022-04-24 13:23:00,,0825.2,5.00,0.00,21.4,20.9,00.0,30.3,23.2,16.6,0000.0,0005.58,0002.21,0001.47
2022-04-24 13:24:00,,0825.2,4.99,0.00,21.4,20.9,00.0,30.3,23.2,16.7,0000.0,0007.34,0002.20,0001.46
2022-04-24 13:25:00,,0825.2,5.01,0.00,21.4,20.8,00.0,30.3,23.2,16.7,0000.0,0006.79,0002.14,0001.46
2022-04-24 13:26:00,,0825.2,5.00,0.00,21.4,20.8,00.0,30.3,23.1,16.6,0000.0,0006.18,0002.14,0001.45
2022-04-24 13:27:00,,0825.2,5.00,0.00,21.3,20.8,00.0,30.3,23.1,16.7,0000.0,0006.08,0002.16,0001.45
2022-04-24 13:28:00,,0825.2,5.00,0.00,21.3,20.8,00.0,30.3,23.1,16.6,0000.0,0006.15,0002.13,0001.44
2022-04-24 13:29:00,,0825.2,5.00,0.00,21.3,20.8,00.0,30.3,23.1,16.6,0000.0,0006.31,0002.19,0001.44
2022-04-24 13:30:00,,0825.2,5.00,0.00,21.3,20.8,00.0,30.3,23.1,16.7,0000.0,0007.21,0002.22,0001.43
2022-04-24 13:31:00,,0825.2,4.98,0.00,21.3,20.8,00.0,30.3,23.1,16.7,0000.0,0007.60,0002.26,0001.43
2022-04-24 13:32:00,,0825.2,4.99,0.00,21.3,20.8,00.0,30.3,23.1,16.8,0000.0,0008.20,0002.27,0001.41
2022-04-24 13:33:00,,0825.3,5.01,0.00,21.3,20.8,00.0,30.3,23.1,16.8,0000.0,0008.85,0002.22,0001.39
2022-04-24 13:34:00,,0825.2,5.00,0.00,21.3,20.7,00.0,30.3,23.0,16.7,0000.0,0008.66,0002.18,0001.38
2022-04-24 13:35:00,,0825.3,5.00,0.00,21.3,20.7,00.0,30.3,23.0,16.9,0000.0,0007.75,0002.17,0001.37
2022-04-24 13:36:00,,0825.3,5.00,0.00,21.3,20.7,00.0,30.3,23.0,16.9,0000.0,0007.77,0002.16,0001.38
2022-04-24 13:37:00,,0825.3,5.00,0.00,21.3,20.5,00.0,30.3,23.1,17.0,0000.0,0007.72,0002.17,0001.39
2022-04-24 13:38:00,,0825.3,5.00,0.00,21.3,20.6,00.0,30.3,23.0,17.2,0000.0,0007.80,0002.16,0001.37
2022-04-24 13:39:00,,0825.3,5.01,0.00,21.4,21.1,00.0,30.3,23.1,17.2,0000.0,0007.89,0002.14,0001.37
2022-04-24 13:40:00,,0825.3,5.00,0.00,21.5,22.2,00.0,30.4,23.5,17.2,0000.0,0007.90,0002.05,0001.37
2022-04-24 13:41:00,,0825.4,4.99,0.00,21.7,23.1,00.0,30.4,23.8,16.9,0000.0,0007.41,0002.01,0001.37
2022-04-24 13:42:00,,0825.4,5.01,0.00,21.8,23.0,00.0,30.5,23.9,16.6,0000.0,0007.13,0002.05,0001.38
2022-04-24 13:43:00,,0825.4,5.00,0.00,21.8,22.6,00.0,30.5,23.7,16.5,0000.0,0006.42,0002.04,0001.40
2022-04-24 13:44:00,,0825.4,5.00,0.00,21.8,22.3,00.0,30.5,23.6,16.5,0000.0,0004.83,0002.07,0001.40
2022-04-24 13:45:00,,0825.4,4.98,0.00,21.8,22.0,00.0,30.6,23.5,16.4,0000.0,0005.70,0002.14,0001.42
2022-04-24 13:46:00,,0825.3,5.01,0.00,21.7,21.7,00.0,30.6,23.4,16.5,0000.0,0005.81,0002.23,0001.43
2022-04-24 13:47:00,,0825.4,5.01,0.00,21.7,21.5,00.0,30.6,23.4,16.5,0000.0,0005.93,0002.28,0001.43
2022-04-24 13:48:00,,0825.4,5.00,0.00,21.7,21.4,00.0,30.6,23.4,16.9,0000.0,0006.03,0002.30,0001.42
2022-04-24 13:49:00,,0825.4,5.00,0.00,21.7,21.3,00.0,30.6,23.4,17.0,0000.0,0006.18,0002.30,0001.44
2022-04-24 13:50:00,,0825.5,5.01,0.00,21.7,21.3,00.0,30.6,23.4,17.1,0000.0,0006.13,0002.33,0001.44
2022-04-24 13:51:00,,0825.5,5.00,0.00,21.7,21.3,00.0,30.6,23.4,16.8,0000.0,0005.91,0002.33,0001.45
2022-04-24 13:52:00,,0825.5,5.00,0.00,21.7,21.2,00.0,30.6,23.4,16.7,0000.0,0005.96,0002.34,0001.45
2022-04-24 13:53:00,,0825.5,5.00,0.00,21.7,21.1,00.0,30.6,23.4,16.6,0000.0,0006.12,0002.25,0001.44
2022-04-24 13:54:00,,0825.5,5.00,0.00,21.6,21.1,00.0,30.6,23.3,16.6,0000.0,0006.68,0002.25,0001.43
2022-04-24 13:55:00,,0825.5,4.98,0.00,21.6,21.1,00.0,30.6,23.3,16.7,0000.0,0007.29,0002.23,0001.43
2022-04-24 13:56:00,,0825.5,5.00,0.00,21.6,21.0,00.0,30.6,23.3,16.8,0000.0,0006.77,0002.17,0001.43
2022-04-24 13:57:00,,0825.5,5.00,0.00,21.6,21.0,00.0,30.6,23.3,16.9,0000.0,0006.89,0002.12,0001.43
2022-04-24 13:58:00,,0825.5,5.00,0.00,21.6,21.0,00.0,30.6,23.3,16.8,0000.0,0006.91,0002.10,0001.42
2022-04-24 13:59:00,,0825.6,5.00,0.00,21.6,20.9,00.0,30.6,23.3,16.7,0000.0,0007.02,0002.11,0001.43
